sat.trackr.live / text

‹ back to catalog

IRIDIUM 118

NORAD 42807 · 2017-039E

PAYLOAD ACTIVE UNKNOWN

§ Identity

Operator
Country
US
Launch date
2017-06-25
Launch site
AFWTR
Launch vehicle
Mass (kg)
RCS (m²)

Purposes: comms

External: N2YO · Heavens-Above · Gunter

§ Orbital elements

Epoch: 2026-09-19T01:58:42.935232Z

Period
100.40 min
Inclination
86.3975°
Eccentricity
0.0002248
Mean motion
14.34218072 rev/d
Perigee alt
776.1 km
Apogee alt
779.3 km
Semi-major
7,155.8 km
B*
3.1297e-5
RAAN
314.4077°
Arg perigee
94.9692°
Mean anomaly
265.1760°
Rev number
48,340

§ Raw data

IRIDIUM 1181 42807U 17039E   26262.08244138  .00000107  00000+0  31297-4 0  99922 42807  86.3975 314.4077 0002248  94.9692 265.1760 14.34218072483400

JSON: /api/v1/satellites/42807 · /tle

For live sub-satellite position, see the globe view (requires WebGL).

§ Visibility from observer

Set your observer location to see the next 7 days of passes ≥ 10°. The values pass through the URL so the page stays shareable.

No JS? Fill the form by hand. The geolocation button needs JavaScript.